User: anonymous
Location: Cluny
(50.9333°N, 112.8167°W)
Time: 00:15:23
(UTC-06:00)
Language:

Cosmos 1743 Rocket - Orbit

View from above orbital plane
View from above orbital plane
View from above satellite
View from above satellite

Ground track
Ground track

The orbit data is extracted from the following two-line orbital elements,

1 16720U 86034B   14242.74334209  .00000194  00000-0  20979-4 0  5331
2 16720 082.5533 113.5596 0019610 226.7488 200.4042 14.82777298527863
Epoch (UTC): 30 August 2014 17:50:24
Eccentricity: 0.0019610
inclination: 82.5533°
perigee height: 607 km
apogee height: 634 km
right ascension of ascending node: 113.5596°
argument of perigee: 226.7488°
revolutions per day: 14.82777298
mean anomaly at epoch: 200.4042°
orbit number at epoch: 52786

The dashed part of the orbit path shows where the satellite is in the earth's shadow,  

DLR